Location: General Nathan Twining Observatory
(34.5931°N, 106.8201°W)
Time: 06:32:37
(UTC-06:00)

Daily predictions for brighter satellites

Satellite Brightness Start Highest point End
(mag) Time Altitude Azimuth Time Altitude Azimuth Time Altitude Azimuth
Cosmos 1892 Rocket 3.9 20:34:40 10° SSE 20:38:53 46° E 20:43:10 10° NNE
ERS-1 Rocket 3.8 20:38:12 10° SE 20:42:41 34° ENE 20:47:11 10° N
USA 186 1.6 20:40:59 10° SSE 20:43:52 56° ENE 20:46:36 10° N
Abrixas rocket 4.3 20:45:06 10° NNW 20:47:46 21° NNE 20:50:26 10° ENE
Meteor 2-17 Rocket 4.5 20:43:01 10° N 20:49:09 68° E 20:55:15 10° SSE
Cosmos 1110 Rocket 4.2 20:46:11 10° N 20:51:23 55° ENE 20:56:30 10° SSE
Okean 2 3.8 20:48:22 10° SSE 20:52:20 44° E 20:56:20 10° NNE
Meteor 2-4 Rocket 3.9 20:50:07 10° S 20:55:51 62° E 21:01:41 10° NNE
Cosmos 2333 Rocket 4.3 20:52:53 10° SW 20:57:52 32° WNW 21:02:53 10° N
Meteor 1-19 Rocket 4.3 20:52:53 10° S 20:58:32 90° NW 21:04:08 10° N
Delta 168 4.3 20:56:55 10° SSW 20:59:28 19° SSE 21:01:43 13° SE
OTV 4 2.8 21:00:32 10° WSW 21:02:22 15° SSW 21:04:12 10° S
Cosmos 2297 3.8 20:57:16 10° NNW 21:02:58 69° ENE 21:08:32 11° SSE
H-2A R/B 2.9 20:59:28 10° S 21:03:23 78° WSW 21:07:22 10° NNW
ISS -2.2 21:00:48 10° S 21:03:29 24° SE 21:06:11 10° ENE
PSLV R/B 3.3 21:00:16 10° WSW 21:03:47 86° SSE 21:07:21 10° ENE
BREEZE-M DEB (TANK) 3.0 20:56:42 10° SW 21:04:32 82° SE 21:07:13 10° NE
Cosmos 1726 Rocket 3.5 21:01:42 10° N 21:06:10 80° E 21:10:33 10° S
FENGYUN 3A 3.8 21:01:34 10° S 21:06:55 78° WSW 21:12:19 10° NNW
CZ-2C R/B 0.3 21:06:30 16° SSE 21:08:12 65° ENE 21:10:29 10° N
CZ-4 DEB 3.8 21:08:59 10° S 21:12:06 45° W 21:15:13 10° NNW
Cosmos 1461 4.3 21:12:46 10° N 21:16:21 25° NE 21:18:39 16° E
Cosmos 494 Rocket 4.4 21:12:54 10° SSW 21:17:58 66° WNW 21:23:04 10° N
SPOT 5 3.6 21:15:34 17° ESE 21:18:10 30° ENE 21:21:57 10° N
Cosmos 2058 Rocket 3.0 21:15:40 10° N 21:20:03 87° E 21:24:15 11° S
CZ-4 SHROUD 4.4 21:19:33 21° ESE 21:20:39 26° ENE 21:23:22 10° NNE
Cosmos 2285 Rocket 4.0 21:14:46 10° NNW 21:21:06 76° ENE 21:26:36 14° SSE
Cosmos 1602 Rocket 3.8 21:17:40 10° SSE 21:21:55 49° E 21:26:15 10° NNE
GEOS 3 Rocket 3.9 21:19:49 13° SSE 21:24:32 65° WSW 21:29:45 10° NW
Aureole 2 Rocket 3.0 21:22:04 10° SSW 21:26:05 68° WNW 21:29:47 10° NNE
ALOS 3.6 21:25:01 10° SSW 21:29:21 38° W 21:33:42 10° NNW
Cosmos 1464 Rocket 3.9 21:25:36 10° N 21:31:46 88° E 21:37:46 11° S
deb Chang Zheng 4 4.2 21:28:48 10° N 21:33:08 60° WNW 21:37:25 10° SSW
Cosmos 1812 Rocket 4.3 21:32:04 10° NNE 21:36:06 35° E 21:37:38 27° ESE
Cosmos 2278 Rocket 4.1 21:38:09 10° NW 21:42:41 25° WSW 21:47:10 10° SSW
H-2A R/B 2.6 21:42:31 16° S 21:45:46 56° W 21:50:02 10° NNW
PSLV R/B 3.0 21:48:37 55° SE 21:49:08 72° ENE 21:52:14 10° N
SeaSat 1 2.6 21:47:09 30° SE 21:49:30 61° ENE 21:54:23 10° NNW
Cosmos 2034 Rocket 4.0 21:44:02 10° N 21:50:25 88° W 21:55:17 18° S
Atlas Centaur 2 3.1 21:44:14 10° WSW 21:51:39 57° SSE 21:58:14 17° E
Cosmos 1666 3.3 21:49:18 10° NNW 21:53:08 55° W 21:55:25 22° SSW
ARGOS 4.1 21:52:05 26° ESE 21:53:56 33° ENE 21:58:44 10° N
Cosmos 1626 Rocket 3.9 21:50:39 11° SSW 21:54:58 65° W 21:59:22 10° N
Cosmos 1939 Rocket 3.4 21:53:33 23° S 21:56:00 58° W 22:00:06 10° NNW
Cosmos 2369 Rocket 3.6 21:51:53 10° N 21:56:23 24° ENE 21:58:16 20° E
Cosmos 1302 Rocket 4.2 21:51:14 10° NNW 21:56:28 71° WSW 21:59:29 25° S
CZ-4B R/B 3.4 21:54:35 10° NNE 21:59:41 71° ESE 22:02:50 24° S
COSMOS 2455 2.9 22:02:21 10° SSW 22:08:21 82° WNW 22:14:23 10° NNE
Cosmos 2228 4.4 22:05:00 10° NNW 22:09:03 37° W 22:12:02 16° SSW
OAO 3 Copernicus 4.3 22:04:04 10° W 22:09:04 64° SSW 22:10:17 47° SE
MetOp-B 4.1 22:09:22 36° SSE 22:11:38 88° ENE 22:17:00 10° NNW
Cosmos 1953 Rocket 4.1 22:12:41 39° E 22:12:41 39° E 22:16:34 10° NNE
Meteor 2-12 Rocket 4.3 22:08:02 10° N 22:14:08 77° E 22:16:38 37° SSE
Cosmos 1515 3.7 22:18:53 60° SSW 22:19:28 76° W 22:23:21 10° N
BREEZE-M DEB (TANK) 4.0 22:18:19 10° WNW 22:19:20 22° W 22:19:20 22° W
ATLAS 3B R/B 2.9 22:15:05 10° SSW 22:22:41 67° ESE 22:30:13 10° NE
Cosmos 2346 Rocket 4.4 22:20:59 36° S 22:23:39 76° E 22:29:48 10° N
Abrixas rocket 3.2 22:21:44 10° WNW 22:24:24 43° W 22:24:24 43° W
Envisat 4.0 22:22:53 23° SSW 22:25:36 41° W 22:30:24 10° NNW
Cosmos 1066 Rocket 4.1 22:25:41 42° S 22:27:39 80° E 22:33:27 10° N
Cosmos 407 Rocket 3.5 22:29:34 57° ESE 22:29:52 58° ESE 22:35:01 10° NNE
Cosmos 1346 Rocket 3.3 22:31:31 47° NE 22:31:31 47° NE 22:34:30 10° NNE
Lacrosse 4 Rocket 2.4 22:35:27 34° NE 22:35:27 34° NE 22:37:54 10° NNE
DELTA 2 DEB (DPAF) 4.3 22:34:01 57° ENE 22:34:01 57° ENE 22:38:22 10° N
Kosmos-1675 4.3 22:36:18 40° NE 22:36:18 40° NE 22:40:51 10° NNE
USA 234 3.3 22:33:17 42° ESE 22:35:40 75° NE 22:42:14 10° NW
YAOGAN 6 3.2 22:36:50 53° W 22:36:50 53° W 22:40:20 10° NNW
ISS -1.1 22:37:03 10° W 22:39:51 26° NW 22:42:40 10° NNE
Cosmos 1758 Rocket 3.7 22:47:14 67° NNE 22:47:14 67° NNE 22:51:05 10° N
USA 81 4.2 22:42:28 10° N 22:47:44 70° W 22:48:44 55° SSW
CARTOSAT-1 4.3 22:51:37 43° NE 22:51:37 43° NE 22:54:59 10° N
Cosmos 1943 3.7 22:49:01 22° SW 22:52:36 58° WNW 22:58:13 10° NNE
Meteor 1-21 4.1 22:53:37 71° SSE 22:54:10 79° E 23:00:00 10° N
USA 238 DEB 4.1 22:58:18 46° E 22:58:18 46° E 23:04:21 10° NE
USA 238 4.1 22:58:27 45° E 22:58:27 45° E 23:04:25 10° NE
Milstar 3 Cent rocket 4.3 22:55:24 10° WSW 22:56:46 13° SW 22:56:46 13° SW
Spot 4 4.5 23:01:24 46° NE 23:01:24 46° NE 23:05:20 10° N
Landsat 7 3.9 23:02:10 76° NNW 23:02:10 76° NNW 23:06:36 10° NNW
Spot 2 4.5 22:59:26 10° NNE 23:03:42 69° NNE 23:03:42 69° NNE
Cosmos 1943 Rocket 3.2 23:00:01 10° N 23:05:02 34° ENE 23:05:02 34° ENE
SL-08 RB Rocket 4.3 23:05:28 52° W 23:05:28 52° W 23:09:41 10° NNW
Cosmos 1992 Rocket 4.5 23:03:08 10° NNW 23:08:11 50° WSW 23:08:21 50° WSW
H-2A R/B 2.0 23:09:27 72° N 23:09:27 72° N 23:14:00 10° N
Terra 2.2 23:18:26 61° NNW 23:18:26 61° NNW 23:22:24 10° NNW
Nadezhda 4 Rocket 3.9 23:29:33 75° ENE 23:29:33 75° ENE 23:35:39 10° N
CZ-4C R/B 4.4 23:40:01 13° ENE 23:40:01 13° ENE 23:40:42 10° ENE
Cosmos 2369 Rocket 3.1 23:35:16 10° NW 23:40:04 40° W 23:40:04 40° W
Atlas Centaur 2 3.0 23:33:16 10° W 23:40:54 65° SSW 23:40:54 65° SSW
Cosmos 1953 4.4 23:44:03 10° NNW 23:45:51 25° NNW 23:45:51 25° NNW
Cosmos 1140 Rocket 4.2 23:49:15 52° N 23:49:15 52° N 23:53:18 10° NNE
